Wind_Gust
30 29 27 25 24 23 21 20 18 16 12 10 10 11 11 11 11 11 12 12 11 10 9 9 9 9 9 9 8 8 7 19 16 20 20 27 15 10 12 14 15 15 14 19 19 19 20 19 19 17 20 19 22 26 21 17 16 19 24 18 17 17 16 21 21 17 18 22 17 17 17 19 21 21 27 19 18 20 23 25 28 27 26 27 27 27 28 29
30 30 28 26 25 24 23 21 20 16 13 10 10 10 11 11 11 11 11 11 11 11 10 10 10 9 9 9 8 6 14 19 21 22 30 14 13 11 9 11 14 19 19 22 21 21 19 19 18 16 20 23 16 23 12 23 14 21 19 19 17 19 21 19 22 17 18 18 20 18 15 15 18 14 24 23 21 22 23 26 30 28 28 26 25 28 27 29
29 30 29 28 26 25 23 23 20 17 13 10 9 9 10 10 10 10 11 11 10 10 11 11 9 9 9 8 9 7 15 21 23 27 28 14 17 13 13 13 16 18 25 21 20 20 21 18 16 16 20 24 18 27 15 12 16 17 18 20 21 19 20 21 16 16 15 18 19 17 18 17 20 14 16 25 24 17 25 29 32 30 25 28 27 26 27 28
29 28 29 28 27 25 24 24 21 16 12 9 8 8 9 9 10 10 10 10 11 11 10 10 10 9 9 10 7 16 18 19 24 19 19 11 13 13 12 15 15 20 24 23 19 21 19 19 20 19 21 22 22 21 22 21 21 21 22 23 22 20 22 20 18 19 16 16 18 16 14 17 15 13 21 22 25 19 28 28 24 26 28 30 30 30 28 29
28 28 28 27 27 26 26 25 21 16 12 9 8 7 8 8 9 9 9 10 10 11 10 10 10 10 9 9 9 17 16 21 23 20 18 11 11 11 14 14 14 23 22 20 21 21 20 21 19 18 20 26 24 20 26 23 13 21 19 23 18 20 20 19 20 17 15 14 15 13 20 16 18 18 16 21 23 24 23 21 22 25 29 30 29 30 29 29
29 29 28 27 27 27 26 26 23 17 12 9 8 6 7 8 8 9 9 9 10 10 10 11 10 11 10 9 17 18 18 12 18 17 10 10 10 9 14 13 15 21 20 22 21 18 18 19 20 21 23 22 21 23 23 15 12 23 16 24 15 17 21 20 21 18 16 16 13 18 15 18 21 20 21 20 20 20 21 20 19 25 31 27 26 27 27 28
29 29 29 28 27 26 25 25 24 19 13 9 6 5 7 8 9 9 9 10 10 10 10 11 11 11 11 10 19 19 24 22 17 15 16 10 9 10 14 12 11 18 20 21 20 22 18 20 20 20 22 24 24 25 20 14 16 20 25 15 19 17 21 19 18 15 14 12 13 14 14 18 17 17 18 22 19 21 21 18 17 20 29 27 28 24 26 27
29 29 29 28 28 27 25 25 22 20 14 9 5 6 7 8 9 9 10 11 10 11 11 11 11 12 14 17 17 21 25 18 20 20 12 11 14 15 16 20 22 21 20 21 20 20 18 21 22 19 24 24 22 25 18 18 18 21 27 20 20 17 16 16 16 16 15 15 17 16 18 17 15 20 19 23 21 26 30 18 15 19 23 26 25 22 23 29
29 29 29 29 28 27 26 25 22 20 15 9 5 6 7 8 9 10 10 10 11 11 11 10 12 12 14 17 21 24 20 18 17 21 24 21 20 21 25 23 23 22 21 20 20 20 18 21 21 21 25 23 20 21 16 19 25 12 18 20 18 18 14 15 14 15 14 15 16 20 21 19 17 17 26 22 21 22 26 19 15 20 23 24 25 21 23 24
29 29 28 29 29 28 27 25 22 20 16 11 7 6 7 7 8 8 9 10 11 11 11 11 12 12 16 18 19 23 18 14 19 22 22 21 21 23 25 19 22 22 21 20 19 22 23 24 19 18 18 22 23 22 18 20 25 17 19 19 19 21 21 18 29 19 14 15 15 23 23 20 18 21 20 20 19 21 17 18 15 17 19 18 19 20 23 23
30 29 28 29 29 29 27 26 23 22 17 13 7 7 7 7 7 8 8 10 11 11 11 12 11 15 18 21 23 19 11 13 17 18 20 21 22 23 22 19 20 23 20 19 20 20 21 20 13 19 20 24 18 19 20 25 20 19 19 20 19 19 22 14 19 15 17 18 17 23 27 24 16 21 23 19 18 20 21 17 16 22 19 23 22 23 18 21
31 29 29 29 28 29 28 26 23 19 18 14 10 7 7 7 7 8 9 10 12 12 12 12 14 19 19 21 25 20 14 12 15 17 19 22 22 21 18 19 19 20 19 20 20 20 19 17 13 19 27 21 25 17 22 21 19 18 17 24 22 22 28 17 24 17 19 21 14 16 20 24 26 20 20 18 18 23 19 15 21 24 18 21 19 22 20 23
31 30 30 29 28 29 26 24 23 19 16 13 13 8 7 7 7 8 10 10 10 12 12 10 13 18 17 21 24 14 12 14 15 16 17 20 19 18 18 17 19 20 22 19 18 18 13 15 15 20 20 22 22 30 26 22 20 19 21 23 22 21 25 22 15 18 20 18 16 17 27 25 20 18 18 19 21 28 20 22 22 20 22 19 20 24 22 25
32 32 31 29 27 29 24 23 21 18 15 11 11 11 7 7 8 10 11 8 12 10 12 11 19 19 16 20 18 13 9 13 16 18 18 19 18 19 18 16 17 20 17 19 16 13 12 15 18 21 22 24 28 21 24 24 18 27 23 23 25 22 24 20 24 20 21 22 19 21 26 19 18 17 16 15 17 24 20 18 17 17 19 18 17 20 24 28
32 32 31 30 30 27 24 22 20 17 15 11 10 9 8 7 8 9 11 12 9 12 9 9 19 16 18 18 15 12 9 12 18 18 19 20 18 18 18 17 17 18 15 15 14 13 14 15 18 22 28 23 25 23 25 25 24 24 25 25 22 23 26 18 19 19 21 21 20 23 29 24 18 17 15 14 13 21 13 15 16 16 17 23 23 22 26 28
32 31 31 30 31 29 26 23 19 15 14 11 8 7 7 7 8 9 9 8 10 12 19 15 21 21 26 25 18 14 15 19 19 18 19 18 19 20 19 18 16 16 16 17 17 16 16 17 23 22 27 24 26 25 24 26 25 24 25 16 23 17 18 20 20 18 19 21 18 22 25 27 18 19 16 12 16 19 13 12 13 16 16 18 21 20 21 25
32 32 30 30 31 30 28 24 18 14 13 10 10 9 7 7 8 9 10 13 14 17 17 18 13 23 17 19 18 18 21 19 17 19 19 19 19 20 21 19 20 19 17 17 18 17 18 22 20 28 24 28 24 27 26 20 22 23 24 24 20 20 16 20 24 21 15 19 22 18 25 22 19 23 17 16 16 16 16 15 13 15 14 14 13 15 16 20
31 31 30 31 31 30 28 24 18 15 12 9 8 4 9 6 9 12 8 13 17 21 21 24 22 19 33 25 21 22 19 18 18 19 18 18 18 18 20 23 17 19 19 21 21 24 21 27 24 27 23 25 25 25 24 22 16 14 15 18 25 21 21 22 29 21 17 20 20 16 20 22 23 23 17 16 15 14 13 14 13 13 13 13 14 14 16 18
32 31 30 31 32 31 29 28 22 14 12 7 9 10 12 9 16 19 17 18 18 16 18 25 21 21 22 25 17 18 16 18 15 18 20 19 19 19 21 20 19 19 23 24 25 25 23 24 24 25 27 27 28 26 23 20 17 18 18 20 20 23 24 24 21 21 19 19 20 19 22 16 19 17 15 15 14 14 12 11 15 14 16 13 12 12 15 16
33 32 31 31 32 31 30 28 25 17 11 9 16 14 15 16 17 17 21 21 26 22 22 16 28 23 17 18 17 20 18 17 19 19 18 18 20 19 22 22 21 22 25 27 25 28 20 25 23 24 27 22 17 20 21 21 17 19 19 20 24 23 27 29 26 21 19 19 24 24 24 20 21 16 15 15 13 13 15 16 16 16 17 15 14 13 14 14
35 33 33 31 30 31 30 28 28 24 6 19 18 21 17 20 18 15 17 22 24 26 27 20 26 23 21 18 18 21 21 20 17 19 19 19 20 18 24 22 23 26 24 24 30 25 25 23 23 25 27 21 21 13 16 19 18 20 22 21 25 22 24 21 19 16 13 20 25 25 24 23 18 16 15 14 15 17 16 17 15 15 17 17 15 16 17 18
35 36 33 33 30 31 30 29 28 25 18 18 19 19 17 16 15 15 16 21 23 28 27 24 13 19 12 20 13 12 17 22 19 20 18 19 21 26 23 23 23 26 23 23 22 23 21 24 24 26 29 27 18 18 19 21 22 22 24 24 24 26 24 19 22 17 17 17 24 20 21 22 22 21 17 16 17 14 14 14 15 15 15 15 16 17 18 20
34 36 36 33 34 30 30 27 25 22 21 16 21 17 20 17 14 12 15 24 30 26 27 21 20 18 19 15 16 14 19 21 24 24 27 21 18 26 19 24 21 24 29 27 24 22 25 24 22 20 20 17 17 19 22 22 22 23 25 25 26 21 21 26 20 13 16 21 24 23 27 24 19 18 18 17 18 15 15 15 14 15 17 16 16 18 20 21
36 35 37 35 33 34 29 27 25 15 15 16 18 21 18 16 15 14 16 21 20 22 23 21 20 19 21 20 26 20 20 20 20 26 23 24 23 17 24 21 23 21 24 21 25 25 27 24 19 17 12 16 22 22 22 24 26 25 25 27 28 22 24 24 18 21 13 25 27 25 27 27 24 24 23 20 16 16 18 17 16 14 15 16 16 18 20 22
36 36 35 37 35 32 32 25 12 16 12 15 19 20 20 16 13 12 16 19 27 25 18 20 15 21 18 16 17 25 20 22 20 20 30 20 21 19 22 20 21 22 22 21 23 25 27 22 17 16 21 21 23 26 24 25 28 26 23 26 27 26 24 21 21 23 26 28 29 25 30 26 23 23 23 22 22 20 20 19 19 17 16 17 18 18 19 21
35 36 33 35 36 36 31 12 15 22 20 20 22 23 19 17 13 13 15 20 21 29 21 25 22 23 17 22 16 22 15 27 18 18 22 20 19 24 20 24 21 22 17 18 23 26 25 17 14 18 18 20 22 24 22 22 28 25 24 19 24 24 20 21 23 25 26 26 24 20 24 28 21 27 28 26 24 22 21 20 20 21 21 21 21 22 21 21
34 35 35 33 32 35 18 14 21 20 16 21 25 23 20 14 11 12 17 18 21 31 21 27 22 22 19 16 22 15 23 18 22 17 20 18 22 17 23 21 20 22 21 17 23 31 24 23 23 15 17 23 22 27 27 27 27 31 20 17 17 20 21 22 23 24 29 22 28 26 28 27 27 26 26 27 24 24 22 23 22 24 22 23 22 23 22 24
35 35 34 32 31 22 14 20 21 19 19 21 23 22 18 12 11 13 16 13 15 16 23 24 14 18 17 17 19 26 16 16 23 26 18 20 19 18 23 24 26 26 27 17 25 23 15 20 14 17 19 23 24 23 20 17 27 28 22 17 19 22 23 24 25 26 25 25 28 26 23 33 30 28 26 32 25 26 25 26 26 26 25 24 24 25 24 25
33 34 32 32 34 24 16 16 17 23 22 22 21 21 18 12 14 17 15 13 20 29 23 13 14 16 17 14 21 20 23 16 23 23 16 13 18 22 25 20 24 24 24 21 27 24 20 13 16 15 20 24 21 21 16 17 24 18 20 19 22 22 23 24 27 25 25 27 28 26 25 34 29 26 27 27 24 27 27 27 27 27 27 26 26 24 26 25
35 31 31 29 27 12 12 16 15 22 21 20 20 21 16 14 16 16 13 12 15 19 17 18 19 18 22 23 23 23 24 19 19 21 17 20 19 21 29 22 24 21 24 22 27 26 31 25 14 20 22 22 22 20 19 16 19 22 24 25 26 27 27 25 26 25 24 26 31 28 27 30 34 22 28 32 33 25 24 26 25 27 27 27 25 25 27 27
34 33 28 24 18 22 21 15 25 26 22 20 22 20 15 15 17 16 7 13 17 22 16 16 21 15 19 20 25 25 22 20 24 20 22 21 21 21 19 26 24 27 26 26 29 27 28 26 25 23 22 23 18 23 19 19 18 18 24 25 24 25 25 27 26 23 26 31 28 27 30 27 35 24 25 26 20 23 22 26 29 30 30 29 27 27 27 27
35 32 28 21 21 22 21 22 28 25 21 22 20 19 17 18 23 18 13 17 22 17 16 15 12 18 17 19 22 20 28 26 18 21 23 22 20 24 25 23 19 23 23 22 25 22 28 26 21 23 24 18 18 21 23 23 21 22 22 23 23 23 23 24 25 28 28 32 26 27 23 26 28 25 27 22 25 21 20 23 29 30 30 28 28 27 26 27
37 30 29 23 16 16 18 20 20 21 21 20 19 16 19 15 13 16 20 16 12 15 20 21 16 13 15 16 24 22 16 24 17 22 17 21 25 23 22 28 21 25 26 17 25 24 24 25 24 27 20 25 19 24 22 25 23 24 23 21 23 24 20 18 23 28 32 31 28 30 23 33 24 31 28 34 29 28 17 17 23 28 30 30 29 28 27 27
38 28 21 15 17 20 19 18 20 21 21 17 19 17 17 12 15 11 20 23 18 13 15 17 13 15 17 25 21 19 22 22 20 25 19 21 21 22 23 23 22 24 25 24 30 22 22 24 25 22 25 27 22 23 21 26 25 27 26 25 22 27 31 23 25 25 26 27 25 26 29 24 22 18 16 21 19 19 16 17 20 25 27 27 28 28 28 26
39 28 19 21 22 24 20 21 18 17 18 20 17 20 11 17 16 20 19 26 27 18 20 19 20 19 22 24 24 26 21 24 20 21 23 23 24 25 23 24 24 25 24 29 16 24 22 29 24 19 19 19 18 16 16 18 24 28 30 26 25 29 23 33 27 27 28 30 30 29 31 26 31 27 27 22 17 18 18 16 19 25 26 27 28 30 29 28
26 14 17 18 22 22 22 23 17 16 16 18 19 13 14 16 17 21 22 24 20 22 22 22 23 24 23 23 18 22 24 22 20 24 23 24 25 29 22 29 29 18 23 24 17 27 22 28 20 19 13 18 19 19 22 14 21 18 18 23 26 22 26 24 23 24 23 23 35 24 34 34 32 36 32 24 19 21 19 19 22 25 27 27 28 29 28 28
20 22 13 25 25 26 26 21 19 17 17 19 19 13 17 18 19 18 20 24 22 20 18 19 19 22 18 21 22 14 19 15 22 24 25 16 24 23 25 23 17 22 17 21 26 22 26 27 24 29 23 23 30 34 27 18 21 31 29 24 27 23 22 25 29 21 24 31 31 24 29 27 26 32 23 20 20 21 19 21 23 23 26 29 29 28 29 28
22 16 17 26 30 29 25 21 19 17 20 20 15 6 15 16 20 19 18 21 21 16 20 16 22 13 20 20 20 19 23 16 12 15 19 16 27 20 19 21 15 17 18 15 21 19 21 31 25 24 26 24 21 19 21 23 23 29 29 22 32 24 25 24 24 22 21 27 30 27 26 31 26 27 24 23 24 21 21 21 23 26 28 30 28 28 26 25
16 17 19 29 31 30 30 27 20 19 21 21 14 8 18 19 19 19 18 21 16 19 18 15 19 14 18 19 20 21 24 24 20 20 20 12 23 18 24 16 19 14 13 17 23 24 22 28 30 21 27 24 25 23 25 23 26 29 25 29 24 29 29 31 31 31 33 28 25 31 27 34 23 30 19 19 20 19 21 22 24 28 31 31 29 29 29 28
19 22 18 28 34 30 31 28 27 20 18 14 15 17 18 19 23 18 18 19 19 18 15 18 16 20 18 19 21 22 22 22 21 23 20 16 28 18 20 15 26 25 23 13 23 18 28 20 33 25 24 25 31 27 27 26 25 27 26 26 26 29 21 28 28 33 32 31 30 32 32 27 23 24 25 22 18 17 19 23 23 26 27 28 27 28 28 27
19 21 18 26 36 32 30 25 23 20 17 15 14 19 17 22 23 18 19 14 18 13 20 18 19 20 18 22 20 19 22 19 23 23 20 20 19 24 12 18 19 18 18 20 18 20 25 24 27 28 29 31 30 27 27 28 29 28 25 26 23 22 25 28 29 29 35 34 33 29 37 28 18 18 18 18 14 15 18 16 18 19 22 25 27 25 25 25
23 24 22 25 31 31 29 22 23 16 17 19 20 24 21 17 19 18 20 16 16 22 15 19 16 15 19 20 19 18 21 23 23 23 20 23 16 23 21 17 18 18 23 26 23 23 27 22 26 27 28 29 28 28 30 32 31 27 28 32 29 28 29 32 33 29 33 38 34 37 37 33 26 27 24 15 12 16 18 20 19 17 16 20 25 25 24 24
23 21 17 20 28 26 26 18 15 18 16 17 17 16 17 17 16 19 20 18 22 17 20 17 20 20 14 16 15 19 18 27 22 25 24 24 29 30 28 30 23 18 17 27 26 18 15 31 29 33 31 32 34 33 35 34 34 34 32 32 32 34 30 33 35 29 33 30 32 31 34 33 19 19 22 20 16 13 13 13 14 14 15 14 19 22 24 23
20 20 20 17 27 26 22 14 15 13 15 15 16 21 16 18 18 17 18 20 22 19 19 21 19 15 19 17 18 20 15 24 13 20 23 19 30 24 29 30 17 24 18 20 23 21 25 18 26 29 31 29 25 26 31 28 34 33 29 26 27 32 29 31 32 30 35 33 33 33 39 30 19 17 16 19 20 18 19 20 17 19 15 16 18 21 23 24
24 24 17 18 25 23 19 16 15 16 15 16 21 21 20 18 13 14 20 22 19 18 15 17 18 22 24 17 22 19 19 21 32 23 26 25 35 28 26 26 27 32 25 25 21 27 28 22 27 29 27 28 28 24 25 24 26 27 24 28 31 32 32 27 28 27 35 29 30 36 40 30 27 27 28 23 20 22 21 21 21 20 18 19 19 18 20 23
19 17 18 19 23 18 20 13 15 17 16 16 18 19 19 20 18 17 18 19 16 16 16 19 20 19 21 19 18 17 18 19 23 25 26 27 27 30 23 26 26 29 20 22 21 21 29 27 29 31 33 34 32 31 28 33 33 37 31 33 36 33 33 32 32 36 38 30 34 34 39 34 32 30 30 27 24 25 27 27 27 24 23 24 21 18 20 21
20 16 17 20 22 15 16 18 16 15 14 13 16 17 18 20 21 25 13 19 13 19 23 19 20 20 20 18 17 19 20 24 23 26 22 23 23 31 25 27 32 29 27 25 16 27 28 33 30 31 34 37 36 37 35 33 37 37 37 36 35 36 36 37 38 43 32 39 43 42 34 39 37 37 35 33 32 30 27 27 29 30 25 21 19 18 16 21
17 13 13 13 13 16 17 11 20 20 20 19 19 17 20 22 20 23 20 20 14 17 20 15 20 19 21 23 24 25 16 21 24 27 23 24 24 23 34 27 29 27 26 31 25 28 29 31 28 30 33 35 35 38 37 38 35 37 37 37 37 36 37 42 40 42 37 38 44 36 38 42 39 37 33 32 32 31 32 32 31 30 32 29 24 21 21 22
17 20 11 14 15 14 19 22 22 21 23 19 23 18 21 21 22 22 20 20 18 16 16 14 17 22 24 24 23 24 18 22 17 19 22 23 23 27 29 25 25 26 27 29 28 25 31 33 29 30 37 37 37 39 38 40 40 40 39 40 40 42 43 44 47 44 42 39 41 46 43 47 45 41 39 37 34 35 36 32 32 32 32 29 26 21 21 22
18 18 15 22 18 22 19 18 19 18 20 15 15 17 24 21 23 22 22 19 17 16 14 20 20 21 22 20 19 22 18 19 22 27 21 23 26 22 25 24 27 24 26 28 26 15 22 32 22 28 35 37 35 35 36 39 39 46 41 42 45 44 45 45 46 41 42 47 47 47 47 50 42 36 37 36 36 36 36 35 35 31 26 22 21 21 21 21
17 15 15 18 21 17 17 17 18 18 20 18 21 19 21 22 23 18 19 15 18 21 19 22 22 19 17 17 18 21 20 22 22 23 24 23 28 21 25 23 22 26 26 31 23 27 24 28 27 33 34 39 38 36 37 37 40 44 44 47 48 42 45 44 51 42 42 44 41 40 45 50 38 35 35 34 34 33 33 31 29 25 20 20 23 23 22 21
20 13 12 15 20 15 22 18 20 21 22 23 26 23 26 18 18 19 27 18 20 21 18 14 15 20 19 20 20 19 19 20 21 24 27 29 29 31 30 33 30 32 31 32 26 35 29 32 32 29 36 40 39 37 36 38 42 46 49 49 41 43 44 49 50 44 45 42 42 38 45 39 37 33 36 33 32 31 30 27 26 26 26 25 23 21 22 22
Wind_Speed
23 22 21 20 19 19 17 16 15 13 9 7 7 7 7 8 8 9 9 9 9 8 7 6 5 5 6 6 6 6 4 7 7 9 11 15 2 6 10 11 11 9 9 6 9 10 10 10 11 10 9 8 9 11 10 8 5 5 8 6 5 3 5 5 9 6 7 11 2 8 9 9 12 10 11 3 11 9 13 13 12 11 11 15 11 16 18 18
22 22 22 21 20 20 18 17 16 13 10 7 5 6 7 8 8 8 9 9 8 8 7 6 6 6 6 6 5 4 5 7 10 13 18 3 10 8 8 9 9 11 8 9 11 10 10 9 9 8 8 8 8 10 1 5 3 5 6 5 6 6 6 4 7 4 1 7 9 7 3 7 7 6 8 10 12 13 12 12 11 14 11 14 12 14 16 17
21 22 22 21 21 21 19 18 16 13 9 6 5 5 6 7 8 8 8 8 8 8 7 7 6 6 7 5 5 3 6 8 11 16 17 12 11 10 11 10 11 10 11 11 10 11 10 10 9 7 8 10 6 13 7 2 3 7 7 6 4 5 9 7 7 8 4 6 5 6 9 9 9 6 8 10 4 10 12 11 8 12 11 12 12 12 13 15
22 21 22 21 21 20 20 19 16 13 9 6 3 4 6 7 7 8 8 8 8 8 7 7 7 6 6 5 3 6 7 9 10 4 5 10 11 10 10 11 9 10 10 13 11 11 10 11 11 11 9 10 9 11 9 1 4 9 7 8 8 7 9 11 8 10 3 1 6 2 7 8 7 2 8 12 14 8 8 9 9 10 12 13 17 14 11 13
22 22 21 21 21 21 21 20 17 13 9 5 2 4 5 6 7 7 7 7 7 7 7 7 7 7 5 5 3 6 5 7 4 8 5 7 10 9 10 10 10 10 12 10 12 13 11 12 10 9 8 9 11 10 12 13 5 3 7 13 5 7 10 10 7 5 7 2 3 1 7 5 8 8 2 12 13 5 7 8 13 10 13 13 14 16 13 10
22 22 22 21 21 21 21 21 18 14 8 5 1 4 5 6 6 6 6 7 7 7 7 7 6 6 6 4 6 7 5 3 4 7 9 7 8 8 8 8 9 8 10 11 11 11 11 10 9 9 8 10 11 9 4 6 2 8 8 10 6 6 10 10 5 5 9 6 6 10 3 8 12 8 12 10 11 6 7 5 7 16 16 15 14 14 12 12
23 23 22 21 21 21 20 20 19 15 9 5 1 3 5 5 6 7 7 7 7 7 8 8 7 6 5 3 6 6 8 8 8 6 11 9 7 7 6 6 5 7 10 11 11 10 9 11 10 9 11 12 14 11 7 7 8 5 10 3 12 11 10 4 6 5 6 5 4 5 6 7 3 6 9 6 8 14 15 5 4 12 12 13 14 11 12 15
23 23 22 22 21 21 20 19 18 16 10 6 3 3 4 6 6 7 8 8 8 9 8 8 7 7 7 5 5 6 8 7 9 10 7 8 9 7 6 7 10 10 10 12 11 11 10 11 11 9 11 9 7 13 10 4 8 8 10 12 10 5 9 5 6 2 3 2 4 2 8 4 7 10 10 8 8 9 17 12 4 12 14 12 17 12 9 10
23 22 22 22 22 21 19 19 17 15 12 7 3 3 4 5 6 7 8 8 8 9 9 8 8 7 6 5 7 9 4 8 9 12 11 9 10 10 10 8 11 11 11 11 12 12 10 10 12 9 10 13 11 13 9 6 10 4 10 11 9 9 5 3 7 6 4 3 3 9 4 5 9 8 9 10 10 9 11 14 9 11 13 14 12 11 13 14
22 23 22 22 22 22 19 18 17 14 13 9 4 2 3 4 5 6 7 8 8 8 9 9 8 7 6 5 7 8 6 8 11 11 13 11 11 10 12 9 12 12 11 11 11 12 13 11 11 10 9 9 11 11 10 12 11 7 7 9 10 12 13 9 18 9 3 6 6 8 6 4 8 5 8 6 6 12 5 10 2 11 9 9 9 9 9 11
23 22 22 22 22 22 20 18 17 14 12 10 6 2 2 3 4 5 6 8 9 9 9 9 9 8 6 7 7 5 3 6 8 9 12 10 11 11 12 10 12 11 12 11 12 12 13 12 7 7 7 7 9 10 8 10 11 10 8 11 10 11 12 7 10 4 4 7 10 2 3 3 2 10 5 4 5 7 7 10 2 6 6 8 11 8 7 2
24 22 22 22 22 21 19 19 17 14 11 11 8 4 1 1 3 5 6 7 9 9 9 9 11 6 7 9 9 4 7 3 7 8 9 11 9 10 11 10 10 11 11 11 10 10 11 10 7 6 9 10 9 10 7 12 11 7 7 11 12 14 13 10 12 9 4 7 7 4 8 8 8 6 6 4 6 8 10 10 4 3 1 4 7 5 5 6
25 24 22 21 21 20 19 18 17 14 11 9 10 6 3 1 3 4 5 6 8 9 9 9 9 5 6 8 10 4 5 6 7 8 8 8 8 8 9 10 10 11 12 11 8 10 8 5 8 10 10 10 11 9 13 13 11 11 11 10 11 9 10 11 5 10 11 3 7 5 8 5 5 9 8 5 4 7 11 14 10 8 5 2 5 3 8 3
25 25 23 21 20 19 19 17 17 15 12 7 7 8 5 3 4 3 7 5 9 7 9 7 7 6 6 8 3 5 2 5 7 8 9 9 10 10 10 9 9 10 10 11 9 6 2 5 9 12 11 11 10 13 14 11 9 9 10 9 9 8 7 8 10 7 8 10 6 7 9 4 5 6 5 4 4 2 9 10 11 10 10 7 4 5 3 3
25 25 24 22 19 19 18 17 16 14 13 8 6 6 6 3 3 4 4 3 7 7 5 4 7 5 6 6 4 5 6 3 8 9 9 10 10 9 9 7 9 10 7 8 6 5 4 8 9 10 9 11 13 12 11 9 8 8 8 9 9 9 3 7 10 9 8 9 10 11 9 4 7 0 2 4 2 8 3 3 7 7 10 13 8 12 14 12
25 25 24 23 19 19 17 15 14 13 12 9 6 5 5 5 2 3 6 5 7 7 7 5 8 9 8 10 3 7 5 10 10 10 9 10 9 8 8 8 7 8 8 8 6 6 6 8 10 9 11 12 13 10 10 9 9 8 9 8 8 6 4 6 11 10 9 8 8 10 3 5 4 2 3 1 5 11 6 5 4 9 10 10 12 11 12 15
25 24 23 23 22 18 17 14 13 12 11 8 7 7 5 5 3 2 3 3 6 6 6 4 2 10 5 4 5 8 8 10 7 9 9 9 9 8 8 9 8 9 8 9 9 8 8 9 7 10 11 11 10 10 9 8 8 8 6 7 8 6 5 5 8 12 8 8 10 11 2 6 5 7 7 6 7 9 9 7 6 8 7 7 6 6 7 11
24 24 23 23 23 21 17 14 13 12 10 7 4 3 3 3 3 2 4 4 6 7 8 9 9 7 12 11 10 12 7 6 8 8 9 8 10 10 9 8 7 9 9 9 11 12 8 9 8 10 8 10 9 8 8 9 5 2 4 7 11 6 6 10 9 3 7 8 8 8 7 12 11 13 10 10 9 8 7 8 7 6 7 6 7 7 5 7
25 24 23 23 22 22 20 15 11 10 10 5 6 7 9 6 5 7 5 5 5 4 5 8 6 7 7 13 7 9 7 9 7 8 10 9 9 9 8 7 10 10 10 9 9 13 8 9 8 9 10 10 11 10 9 6 7 9 7 8 9 9 8 10 7 6 10 10 8 7 8 7 12 10 9 8 8 7 6 6 8 7 8 7 4 6 8 8
26 24 24 23 21 22 22 19 10 9 9 6 4 4 4 3 4 4 7 9 11 11 9 2 14 13 8 10 7 9 10 7 9 8 9 9 6 10 10 9 11 11 11 10 9 13 8 9 8 9 10 9 8 12 13 13 5 10 10 9 9 9 10 10 13 10 11 3 10 12 14 12 9 8 8 9 7 5 5 9 7 8 9 8 6 4 6 6
25 25 24 23 21 22 22 22 16 6 3 5 8 6 5 8 7 2 1 10 14 16 16 12 16 14 10 8 8 6 7 9 9 8 10 8 11 8 10 10 10 10 10 12 13 9 12 9 9 12 14 13 13 6 9 8 7 10 12 11 10 11 10 7 10 4 3 3 4 8 13 14 8 8 7 7 7 7 7 8 8 9 10 8 9 9 8 7
27 25 25 23 22 22 22 20 22 12 6 6 5 6 7 8 5 6 5 7 13 18 18 15 8 9 4 12 7 4 8 7 9 10 9 9 10 10 11 10 11 10 10 10 9 7 8 9 9 12 11 17 10 6 7 11 10 11 10 11 11 10 10 8 10 10 8 6 7 9 12 5 8 12 9 9 8 6 7 8 8 7 7 7 8 10 9 10
26 28 24 24 22 21 21 20 20 14 3 5 2 7 8 8 6 2 5 9 13 14 16 13 12 9 10 7 6 5 10 10 9 13 12 10 9 12 8 10 9 11 11 12 9 9 9 9 12 12 11 7 5 8 9 10 10 9 9 10 11 10 10 6 9 7 4 7 7 10 11 10 11 11 8 9 9 8 7 6 7 7 8 7 9 9 9 11
26 26 26 24 21 21 22 20 19 9 6 8 9 8 9 7 6 7 6 6 7 9 12 11 11 9 10 8 10 9 10 8 10 13 13 10 8 10 10 11 14 10 10 11 15 10 11 11 11 10 4 5 7 7 10 8 9 10 13 12 12 12 11 11 5 9 7 10 13 14 12 9 11 10 9 9 7 7 9 7 7 7 8 9 8 9 9 11
26 26 25 24 22 22 22 19 4 4 6 5 7 9 10 8 5 4 6 5 8 8 9 10 6 10 4 7 9 9 8 10 12 4 14 10 8 8 10 8 7 9 11 10 11 12 13 13 8 4 8 7 10 11 12 11 9 10 11 13 15 17 11 11 12 10 8 9 9 12 10 10 2 9 10 10 10 10 11 11 10 9 9 9 9 9 10 12
26 24 24 23 22 25 20 2 4 10 10 9 10 11 9 7 6 5 5 4 6 6 9 10 7 3 4 10 5 8 6 10 7 4 11 9 9 10 4 8 6 10 10 11 9 6 8 8 2 9 9 10 11 11 11 9 9 9 8 8 14 15 11 12 13 8 9 10 6 3 8 7 4 10 13 12 11 12 12 11 11 11 11 11 10 11 11 12
26 24 24 23 21 22 8 3 10 11 7 9 10 10 9 5 5 4 3 5 7 8 6 8 9 3 4 6 9 4 10 1 10 9 10 9 10 7 10 8 5 7 8 5 5 9 10 12 14 4 3 7 9 10 12 12 10 11 8 5 10 12 12 13 13 11 11 11 14 16 10 9 10 11 9 16 14 15 14 13 13 12 12 12 12 13 12 12
26 23 22 21 22 11 3 7 10 8 8 10 10 10 9 5 4 3 4 2 2 4 6 7 1 4 6 8 9 10 2 4 6 11 6 8 7 6 7 9 11 14 14 5 6 2 3 10 6 8 10 9 10 12 11 7 10 11 14 10 7 9 12 14 12 11 11 11 11 10 12 11 10 9 16 16 15 16 15 13 13 13 13 13 13 14 14 14
25 23 23 23 24 17 4 5 8 9 8 10 10 10 7 6 5 3 3 4 3 5 5 4 2 5 7 6 9 11 11 6 8 9 9 5 7 8 8 11 11 12 13 11 10 10 8 2 6 8 6 8 9 12 7 7 9 8 12 12 9 11 13 13 11 11 11 11 11 11 11 11 11 12 1 14 14 14 15 15 15 14 15 14 13 13 14 15
27 23 22 22 19 2 2 5 5 9 8 9 11 11 9 7 4 4 2 4 3 5 6 5 5 5 11 10 9 11 12 6 8 8 6 5 8 10 11 12 13 10 11 11 13 12 13 16 8 7 8 9 11 11 11 10 9 10 13 13 12 13 12 11 11 9 9 7 11 14 16 14 12 7 11 11 11 13 11 11 11 13 14 15 14 14 13 13
27 26 19 16 6 8 9 5 8 11 9 9 12 12 6 4 4 2 3 2 5 7 5 5 6 2 8 10 10 13 13 10 12 10 8 9 10 11 7 9 9 10 9 11 12 14 15 14 12 8 13 10 9 11 10 11 11 9 8 9 9 10 11 11 10 10 7 10 11 15 16 12 12 8 10 11 10 12 13 13 14 15 16 15 14 13 15 15
27 25 23 10 9 8 6 9 12 9 9 11 11 8 4 3 6 4 3 6 10 6 6 0 5 5 8 11 10 8 11 14 9 9 10 7 8 8 9 7 4 7 9 8 10 11 14 11 9 13 14 12 9 8 7 10 11 8 7 9 8 7 6 5 7 6 8 11 11 15 15 11 12 10 7 13 9 12 13 10 16 16 16 15 15 15 14 15
30 24 22 13 9 5 8 8 8 8 9 10 8 5 5 4 3 6 6 5 2 4 5 10 5 4 7 6 8 9 9 9 7 11 9 9 10 11 12 13 11 9 10 6 10 10 9 10 8 13 11 12 8 5 7 11 6 11 10 8 8 7 5 5 6 7 10 14 17 15 14 13 7 4 6 11 10 18 10 5 12 14 13 15 15 14 13 12
30 23 7 7 7 9 9 10 7 9 9 7 7 6 5 3 4 7 8 10 8 5 7 5 6 6 7 8 9 9 9 10 11 9 4 8 9 8 8 13 11 12 10 11 11 9 7 8 9 8 6 15 6 5 8 11 12 11 12 11 9 9 7 6 7 7 9 11 11 15 12 4 10 3 5 4 7 11 8 6 7 14 13 13 14 14 13 12
31 19 8 8 9 12 10 7 5 6 6 7 5 6 3 5 6 7 8 9 10 9 11 10 9 9 10 10 12 13 9 6 11 12 9 9 7 7 9 8 10 12 12 13 4 6 12 10 8 6 8 7 2 4 6 7 8 9 13 11 10 9 3 10 8 10 10 9 8 7 6 10 11 15 16 12 7 8 9 8 8 14 13 15 13 13 12 12
19 6 8 5 10 10 7 6 6 7 6 6 5 3 4 4 5 9 7 11 9 10 12 12 10 10 9 9 8 12 5 9 1 7 10 10 9 11 10 12 12 4 7 6 4 8 8 8 7 2 4 8 9 8 10 3 6 5 7 5 6 7 11 6 7 10 10 6 9 5 10 11 13 16 20 14 8 10 11 9 10 11 13 13 12 12 12 13
8 10 4 11 11 13 9 9 7 7 5 6 6 3 6 6 9 9 8 12 11 11 9 8 6 8 8 6 6 4 9 2 7 7 8 8 9 10 11 8 8 13 6 4 6 6 9 10 13 15 14 8 10 20 17 9 6 5 9 9 14 13 9 6 7 4 6 10 8 10 14 12 11 6 4 5 9 11 10 10 8 9 10 13 11 10 12 12
8 6 7 9 14 14 13 11 10 6 7 6 5 5 5 5 10 9 9 11 10 9 8 5 7 5 7 8 7 3 9 4 4 6 7 3 6 9 11 8 7 8 10 8 4 5 8 10 10 12 15 14 10 11 5 6 10 13 13 10 10 4 8 5 4 7 8 7 6 11 14 14 11 10 4 7 8 10 9 8 8 9 10 11 10 11 11 12
4 4 1 11 13 15 15 15 9 7 6 7 3 1 7 8 9 8 9 10 8 9 6 7 7 6 8 7 9 12 13 9 9 7 6 1 7 7 12 4 9 7 3 4 7 5 6 8 9 10 12 9 13 10 8 6 7 13 13 13 9 10 9 10 7 10 10 9 8 11 13 10 9 8 9 6 8 8 9 7 9 9 9 9 10 11 11 10
7 6 4 11 15 14 17 13 10 8 5 2 5 5 6 8 10 8 8 8 7 6 5 9 8 8 8 10 12 9 11 13 8 9 7 4 11 3 8 1 7 8 13 5 2 5 9 4 11 9 14 13 11 6 8 8 9 8 10 10 8 8 9 10 7 9 8 6 7 7 9 6 7 12 7 12 11 7 5 6 5 6 9 9 9 8 8 10
6 6 4 11 15 16 14 11 2 6 5 3 5 8 7 8 9 7 9 7 7 5 8 8 7 6 8 9 9 10 9 9 10 8 7 9 5 4 2 9 10 8 8 12 8 5 4 8 8 10 9 10 12 13 17 14 14 13 10 11 9 9 8 9 8 8 11 9 7 7 10 9 8 5 5 8 7 4 8 5 7 8 9 7 6 5 7 6
6 7 8 11 12 16 13 8 4 4 3 5 6 7 6 6 8 8 8 7 8 7 7 8 7 7 6 6 8 8 8 8 9 9 7 8 9 10 9 10 8 8 9 7 8 9 6 4 9 10 11 11 13 15 15 18 19 15 12 11 12 10 8 8 9 8 12 13 17 16 11 12 9 14 13 8 1 7 10 12 10 8 8 6 7 7 5 5
7 7 8 5 9 14 12 5 5 3 4 5 7 7 8 7 7 7 8 8 9 7 8 6 9 9 6 6 8 7 8 8 9 10 12 12 14 15 12 21 8 8 4 5 13 5 10 6 10 14 14 15 18 18 20 20 20 19 16 14 13 13 13 13 11 11 10 14 12 9 9 7 7 7 10 11 6 6 2 6 5 3 5 4 5 8 11 9
7 7 7 2 6 12 9 3 3 3 5 6 6 10 9 6 8 5 7 9 7 8 8 7 8 6 10 9 8 9 7 7 3 9 8 10 11 15 17 19 11 8 5 5 4 5 4 4 9 10 8 10 11 10 12 12 12 11 12 9 13 17 16 13 15 11 10 15 17 11 12 8 6 6 9 8 13 10 9 8 9 9 3 4 7 5 3 3
7 7 6 5 9 7 5 5 4 4 7 7 9 11 10 6 6 7 6 8 8 9 5 6 7 10 10 9 10 9 7 7 8 9 11 11 10 11 16 19 10 8 14 13 15 9 6 5 7 8 10 11 9 7 6 9 9 9 13 12 14 19 21 13 7 7 10 11 19 12 10 14 11 11 17 15 12 11 12 9 5 7 6 6 8 5 4 2
4 3 4 6 6 7 4 4 1 4 6 7 9 8 10 9 8 9 10 7 7 8 6 7 8 10 11 11 9 7 8 8 9 8 10 10 11 8 11 16 16 16 10 14 11 7 5 8 9 11 13 14 14 15 16 19 15 16 19 21 18 15 19 17 11 10 12 11 14 16 20 17 19 19 16 16 10 5 7 9 13 13 9 6 4 5 4 4
5 4 4 5 8 5 4 7 5 4 5 6 4 7 10 10 10 10 3 4 6 7 7 7 9 9 9 10 8 9 9 10 11 13 11 13 11 12 14 14 17 19 23 14 8 8 8 9 13 16 19 20 21 23 22 18 20 21 22 22 22 22 21 20 14 15 17 14 13 13 18 17 17 19 18 17 17 14 11 9 10 11 9 6 9 6 10 8
4 4 5 4 3 4 6 3 8 9 11 10 8 7 10 11 11 10 10 10 7 6 5 6 10 10 11 12 13 9 7 8 10 11 12 11 11 12 13 12 15 19 18 13 12 9 10 9 15 16 19 21 22 23 21 20 19 19 21 21 23 24 23 21 20 23 19 14 17 18 22 23 22 22 20 19 17 16 18 17 15 14 14 13 13 14 9 7
5 6 2 6 4 6 8 12 13 12 12 10 7 9 11 12 13 11 9 9 8 7 7 5 8 10 11 11 10 11 9 7 5 8 8 10 12 11 10 12 12 12 11 12 11 7 8 9 13 13 17 18 20 20 18 19 18 20 22 23 24 25 24 24 25 24 23 20 21 21 25 27 24 21 21 17 17 18 18 16 15 17 15 14 16 11 5 8
6 6 5 9 7 8 10 9 8 8 9 8 5 8 9 11 14 12 11 8 6 8 5 11 10 12 13 11 10 9 8 9 11 12 9 11 12 9 10 10 10 10 9 10 9 6 6 7 11 14 14 17 19 20 20 20 20 21 22 24 27 25 25 26 23 22 22 21 24 26 23 22 17 15 14 16 13 15 17 17 20 15 7 9 11 8 8 9
5 5 3 6 7 6 7 8 8 8 7 7 8 9 10 12 14 10 9 7 9 8 7 12 13 11 8 9 9 10 10 12 11 11 11 11 10 9 9 8 11 13 13 12 9 10 8 9 12 12 11 15 18 20 20 19 19 22 24 27 25 22 21 19 16 15 15 18 21 22 21 18 14 15 15 16 15 16 16 13 13 12 9 5 8 8 9 10
7 6 4 5 6 7 9 8 10 9 8 9 10 12 10 11 8 7 9 8 10 10 9 6 8 8 9 10 11 9 10 11 11 11 11 12 13 14 14 16 16 14 12 12 10 12 10 11 10 9 13 13 19 21 20 18 18 19 24 21 18 21 22 23 23 22 21 18 17 13 16 15 15 14 15 16 17 17 15 10 10 6 2 6 10 12 10 10
Wind_Direction
354 355 356 352 348 342 338 336 334 330 323 298 272 255 243 236 232 227 225 224 230 239 242 222 211 210 226 246 257 266 287 267 265 230 233 249 89 110 86 118 147 152 161 206 231 246 239 241 247 245 259 264 255 253 251 267 274 281 263 259 309 340 17 281 51 308 76 238 109 81 114 258 106 153 121 231 89 104 115 103 107 92 72 85 84 119 139 145
351 354 355 354 351 345 340 340 337 332 324 308 275 247 237 230 225 223 223 222 224 229 229 226 225 229 233 238 247 266 263 257 262 258 242 196 150 134 132 135 147 164 179 220 229 231 248 235 239 248 254 260 258 274 147 244 209 268 292 295 300 17 316 340 43 334 31 340 22 46 313 283 72 245 138 209 160 142 137 119 109 96 99 94 115 137 147 147
349 350 352 353 351 347 342 345 342 336 325 311 275 238 227 224 220 218 218 220 220 221 223 225 224 226 228 230 242 232 260 259 248 254 248 154 150 144 144 155 163 167 192 215 226 244 242 256 250 230 251 267 251 263 180 291 243 209 280 300 8 25 300 30 323 44 321 349 239 167 175 254 81 287 140 229 34 142 116 113 116 123 129 134 130 155 151 156
348 349 349 351 351 348 347 350 349 344 335 315 268 224 217 215 215 214 215 216 217 216 216 222 222 218 224 234 246 248 249 282 259 219 106 131 134 146 153 151 170 183 212 237 246 247 242 259 282 296 287 268 274 262 284 277 235 44 276 292 18 292 303 53 316 51 15 313 352 344 85 225 148 302 292 78 40 89 121 134 140 151 150 154 152 156 161 163
348 348 349 348 350 349 352 355 355 351 342 328 259 208 207 208 206 208 211 211 211 210 213 212 214 213 220 234 217 243 264 265 70 74 120 121 133 146 151 159 171 196 216 237 251 259 260 255 263 264 262 275 271 282 229 236 199 315 276 267 192 332 293 57 32 12 39 93 228 260 195 170 96 220 104 354 108 3 28 98 148 133 155 161 157 157 160 160
348 349 349 350 350 351 352 358 360 359 353 348 236 191 192 194 197 198 204 207 205 206 206 205 199 208 217 218 228 230 257 34 109 135 136 145 137 137 154 159 194 231 219 236 247 251 249 248 258 249 249 246 268 269 350 335 66 273 287 330 347 52 282 41 22 39 276 138 165 201 23 107 209 81 50 40 30 7 20 340 88 149 161 163 160 149 157 149
348 350 348 349 351 352 354 358 4 6 9 15 94 171 177 183 185 192 194 195 199 199 197 194 196 192 188 155 232 246 245 292 147 131 133 153 144 142 140 170 172 225 236 237 235 247 232 255 239 250 258 259 250 245 260 303 35 288 273 334 235 59 271 18 48 296 56 248 153 345 118 195 87 173 89 97 24 6 334 347 344 136 135 154 143 149 166 136
347 349 349 349 351 352 353 358 3 10 14 23 88 150 174 176 183 189 189 188 191 191 190 187 190 188 154 213 201 220 224 247 106 131 146 144 154 141 154 186 198 205 222 227 236 233 243 241 246 245 244 265 290 318 342 316 248 251 261 258 356 339 300 349 23 26 246 334 71 150 210 182 94 80 92 83 70 51 319 300 214 133 130 146 144 158 151 145
347 347 349 350 351 351 353 358 3 7 12 25 64 131 177 177 181 183 189 185 187 188 183 179 178 177 199 288 255 280 239 98 129 144 154 175 159 160 181 178 191 199 213 227 236 245 241 230 248 240 276 281 314 323 320 287 253 265 305 350 259 263 297 1 237 161 223 235 162 212 232 78 111 149 106 113 111 97 276 278 309 143 149 157 151 158 163 170
347 347 349 351 351 350 351 357 1 5 7 14 31 127 152 186 182 184 188 188 180 183 181 174 162 169 195 222 258 260 106 117 121 152 168 174 155 157 189 189 178 202 218 225 233 239 231 245 266 325 342 297 278 269 268 278 286 335 317 278 293 288 321 180 257 114 203 256 180 221 107 171 93 243 88 61 98 122 258 268 228 18 105 114 137 156 175 182
345 347 348 350 351 348 350 354 359 2 2 4 5 18 168 167 196 188 191 185 181 175 178 177 160 202 215 225 273 279 106 155 144 155 175 168 159 173 190 200 181 208 225 232 234 227 243 256 291 274 261 272 308 272 264 256 276 282 275 280 274 274 243 280 289 333 264 210 240 0 154 183 109 99 138 99 69 49 243 238 140 108 92 120 140 155 206 130
343 346 346 348 350 348 348 350 354 359 357 357 351 342 353 203 192 204 184 185 183 177 175 177 173 211 264 265 247 277 182 142 166 158 174 170 178 185 191 212 192 214 222 231 226 238 252 286 316 278 270 332 265 309 281 349 289 278 268 266 259 247 248 215 252 202 221 211 224 111 246 193 200 129 121 124 106 69 317 9 30 248 66 140 145 136 46 66
341 343 345 346 348 346 346 348 349 352 356 349 348 338 320 226 221 199 188 177 191 180 181 176 186 242 271 260 232 145 206 126 150 170 173 181 186 195 198 220 213 219 227 240 217 238 251 276 285 281 276 273 290 287 332 299 281 290 271 266 276 267 254 220 244 241 175 163 158 132 263 236 146 99 125 144 89 136 232 132 204 150 172 121 111 102 76 355
341 340 343 343 345 345 345 346 346 343 349 344 341 338 318 281 224 217 183 225 167 188 183 176 221 238 259 272 108 178 141 183 149 176 191 181 199 194 207 211 219 221 240 276 297 328 237 234 260 278 293 281 282 296 283 283 267 260 274 266 270 280 255 214 193 218 278 97 208 161 251 174 105 134 131 140 146 263 242 186 174 154 154 144 106 131 136 194
341 340 338 342 340 343 343 343 344 340 340 339 331 330 323 287 264 208 214 201 169 175 172 166 230 258 217 238 109 96 323 207 186 197 185 189 207 190 209 207 219 221 239 249 263 253 275 272 265 259 255 251 254 259 262 260 262 235 254 244 240 264 270 227 194 222 233 149 218 246 240 252 116 67 25 103 168 265 146 310 189 170 160 143 180 174 186 167
340 339 336 336 337 338 341 340 340 338 337 330 312 313 311 305 265 251 197 315 164 164 189 210 211 232 295 278 126 120 194 205 200 193 178 207 207 213 183 198 216 225 226 225 244 282 246 242 246 261 260 260 253 250 265 260 248 233 242 281 270 218 291 231 185 238 223 277 243 212 243 132 170 170 230 264 220 216 186 216 169 191 184 168 166 181 191 162
338 337 335 332 333 334 337 338 338 336 332 325 309 271 248 287 269 248 292 212 166 207 211 255 237 191 268 91 149 190 193 211 178 175 186 213 208 197 172 188 206 215 208 235 233 230 241 241 241 243 250 269 269 261 258 265 297 283 219 245 279 259 212 254 132 224 211 206 268 233 229 189 201 206 208 211 246 242 212 166 194 189 170 133 140 186 168 172
337 335 334 332 328 330 332 338 339 332 331 314 271 336 290 211 259 272 206 228 209 205 230 246 267 284 241 253 227 230 175 171 165 175 190 195 223 191 186 196 205 223 209 225 224 241 210 243 228 256 247 225 240 236 240 263 257 336 23 291 265 267 285 273 268 183 218 151 255 259 245 170 171 187 193 183 201 234 239 168 178 154 134 127 165 179 192 162
336 335 331 332 327 326 328 334 340 336 328 314 282 279 260 253 232 239 257 174 193 184 220 191 196 215 24 189 218 113 177 124 185 166 185 205 200 255 197 214 219 212 217 225 210 223 202 243 233 244 250 234 224 244 257 275 280 263 239 244 249 244 248 255 259 136 224 227 230 269 278 273 171 202 202 190 216 230 208 171 156 151 142 157 181 168 182 177
335 334 332 328 327 325 325 326 338 341 331 282 206 207 203 202 172 197 209 224 230 225 300 112 196 226 223 186 146 77 93 158 181 203 174 203 197 211 228 204 222 229 243 231 219 206 214 227 231 232 237 253 240 236 242 248 301 322 305 288 276 272 275 266 260 206 175 237 259 262 269 271 245 247 168 183 170 219 199 175 194 168 152 158 165 158 197 174
332 332 330 325 326 324 323 322 325 339 259 275 275 260 331 10 313 80 195 220 229 244 256 251 196 235 336 85 115 189 194 169 226 167 202 155 217 207 202 210 231 232 229 246 256 196 220 232 249 270 281 271 282 283 346 324 266 272 284 295 304 295 282 298 308 325 160 239 291 284 269 263 248 238 190 174 174 210 207 183 206 173 158 157 166 168 186 170
331 330 328 326 323 324 318 322 316 326 264 234 242 275 12 12 355 301 286 273 225 225 235 253 281 280 198 264 90 185 181 193 201 192 172 178 201 228 156 219 213 234 219 238 245 217 183 237 251 252 254 250 233 324 269 269 306 294 291 296 293 287 289 276 265 229 200 222 235 267 287 267 214 245 201 176 186 214 212 188 187 193 164 159 168 176 181 176
330 327 326 323 324 319 322 312 315 315 300 204 221 3 10 339 309 348 289 280 282 262 236 224 226 230 242 216 232 199 246 216 217 179 174 193 197 225 208 202 212 232 236 218 239 214 234 248 259 260 274 299 5 275 308 294 280 288 279 256 252 264 267 283 269 356 250 223 286 281 289 294 284 244 174 169 187 199 182 178 172 180 174 186 179 177 188 194
330 326 325 323 319 323 314 319 299 295 234 263 42 13 358 340 338 316 276 264 293 237 216 206 235 220 232 229 176 209 233 205 241 181 164 183 218 188 233 252 270 268 258 251 219 244 274 287 265 273 204 302 275 267 271 285 268 250 237 239 243 255 273 282 281 200 242 255 239 254 261 259 252 250 160 163 177 200 156 171 184 185 185 179 179 178 186 188
328 327 323 323 322 320 317 315 284 232 282 260 36 9 352 348 333 337 301 276 230 248 176 213 212 233 206 89 114 234 193 274 271 254 157 193 207 224 232 226 240 253 271 250 271 267 249 249 269 300 295 266 255 256 249 247 254 257 266 261 257 248 254 291 275 271 296 304 282 275 240 237 331 299 174 180 191 203 161 177 188 191 182 171 182 184 182 182
329 325 326 323 325 325 306 292 7 340 293 64 1 0 343 348 2 331 298 259 265 174 156 205 159 194 72 191 158 234 260 248 176 159 147 190 254 260 272 251 222 259 244 284 305 315 298 296 151 272 294 307 312 297 288 280 279 270 274 330 319 332 343 304 300 302 268 271 266 145 287 291 216 236 189 188 191 190 168 180 189 190 191 182 181 181 183 183
329 326 327 328 329 336 324 356 328 311 354 11 356 348 338 354 352 303 266 218 260 144 191 87 192 161 247 151 197 161 231 246 156 138 192 158 244 167 256 277 243 231 259 286 279 250 233 241 273 278 269 261 260 253 237 233 243 253 249 23 319 320 311 297 301 293 283 272 273 279 255 251 249 248 234 180 190 183 179 191 192 187 196 184 190 183 185 177
328 328 327 328 322 341 280 304 310 9 1 351 342 335 343 358 294 275 249 287 229 153 201 165 359 117 253 142 231 219 76 89 236 162 200 157 238 191 250 274 287 292 294 262 243 307 154 296 262 239 237 245 248 268 3 345 286 304 318 2 319 305 297 294 287 280 280 288 284 275 284 273 259 247 231 181 179 183 191 191 195 191 194 190 196 187 181 186
331 328 331 329 322 303 231 257 314 358 344 348 337 334 336 341 301 289 291 271 115 215 11 204 12 213 225 186 212 234 266 169 258 126 182 158 179 292 224 229 250 278 273 271 266 282 276 233 295 324 320 287 301 303 328 312 303 294 303 321 297 274 270 269 265 266 265 266 261 263 258 255 259 277 317 143 175 188 190 195 191 190 188 194 195 196 185 184
333 330 331 334 322 191 249 223 254 5 333 345 337 323 311 279 256 234 197 264 101 200 178 90 225 190 199 221 211 206 233 238 246 129 209 212 203 199 255 294 301 292 282 275 267 270 278 287 273 255 260 267 277 287 303 298 293 307 293 290 281 270 259 251 249 252 274 264 272 274 271 268 280 290 144 166 196 195 193 191 187 185 186 191 197 194 192 191
329 328 328 337 315 353 306 306 7 346 338 335 329 311 287 257 253 281 227 12 241 78 238 172 206 201 202 217 235 196 219 232 219 206 215 182 245 209 242 251 229 255 268 273 270 271 261 249 241 203 223 247 269 272 268 274 265 272 291 290 297 275 268 257 243 234 240 247 253 257 260 265 277 262 206 190 179 199 198 202 187 185 187 189 192 200 191 192
326 323 322 331 279 324 300 348 332 327 331 330 317 296 270 261 226 246 269 112 256 95 280 255 155 221 225 226 249 262 210 199 241 218 224 218 227 215 207 266 211 234 244 245 263 249 244 245 256 223 197 212 218 253 269 259 243 231 250 254 263 293 283 272 266 234 230 250 243 255 268 275 261 288 310 151 180 199 208 224 183 186 182 182 190 200 199 191
322 321 313 287 250 242 285 326 308 322 328 318 313 280 265 274 268 236 233 197 27 323 58 317 337 105 289 290 259 261 276 274 183 225 210 243 265 268 254 213 210 244 276 286 301 318 301 286 272 281 263 169 199 252 274 265 248 219 215 234 256 269 297 308 297 296 299 299 303 295 297 266 282 250 320 302 257 200 186 229 161 178 174 175 187 193 205 189
317 317 311 272 273 268 297 285 328 325 321 321 282 278 249 279 263 281 294 8 44 321 260 290 311 280 283 271 270 260 254 217 266 296 254 250 248 249 258 290 289 256 254 263 259 266 289 292 279 303 318 129 161 214 303 309 310 297 313 315 313 311 299 285 285 286 282 282 300 327 319 314 311 6 311 245 21 99 137 177 166 162 173 169 182 188 195 186
313 301 244 260 230 249 252 312 323 330 316 301 291 266 262 245 256 358 15 345 360 332 341 0 305 298 274 255 244 262 247 268 220 237 240 250 237 240 277 265 267 289 285 283 287 290 273 286 297 346 62 113 169 232 230 245 271 295 283 271 269 267 249 260 278 283 295 311 303 291 294 315 291 311 293 278 231 160 157 192 167 164 173 171 180 186 190 187
307 330 298 334 3 357 349 334 351 347 307 294 286 281 256 3 19 358 21 325 342 342 333 319 287 265 256 261 266 267 74 251 51 321 291 278 283 294 282 272 265 259 323 314 3 265 282 273 297 109 274 288 296 301 270 296 279 306 304 282 284 295 285 314 316 293 295 277 262 279 264 268 275 262 261 260 230 170 176 181 181 169 171 164 178 183 188 188
348 314 333 2 357 346 347 336 352 323 290 285 288 288 342 50 10 353 10 348 341 323 326 322 319 333 313 300 320 45 92 239 268 261 267 257 253 253 267 294 302 282 304 350 307 341 312 294 298 304 290 255 248 248 243 248 265 267 272 286 299 300 293 278 288 294 270 267 269 272 274 276 288 292 70 145 216 159 189 178 185 170 168 169 177 183 186 189
317 306 280 352 350 339 336 340 331 304 286 285 280 293 289 347 40 357 354 352 341 334 324 302 296 305 303 322 289 329 110 278 312 265 275 285 285 24 317 311 340 314 333 356 317 321 312 293 288 292 294 298 323 358 345 276 264 272 274 296 288 306 279 250 246 242 253 254 271 261 262 268 260 275 265 198 198 159 189 189 188 171 186 177 181 190 187 193
256 290 335 6 345 341 333 328 306 280 284 281 324 136 17 341 38 351 1 353 332 331 296 327 320 3 337 310 312 319 330 323 328 311 319 303 277 55 306 358 308 3 221 234 291 296 279 290 285 279 280 289 283 250 256 274 256 255 250 239 247 268 262 269 239 273 283 281 292 282 286 280 284 278 283 239 186 188 194 194 199 188 200 200 191 194 195 196
308 294 60 358 352 335 329 316 298 274 239 18 355 6 360 341 0 338 359 355 342 346 322 316 318 315 316 308 329 316 322 318 312 299 294 336 293 144 276 177 274 293 318 351 265 322 290 285 280 279 285 299 280 272 239 236 268 261 271 246 222 249 282 277 280 259 264 280 266 281 273 265 280 299 297 300 168 196 187 187 208 203 201 206 207 190 200 199
301 280 51 8 344 333 321 307 307 7 15 64 18 352 354 10 327 338 348 360 345 305 316 311 321 308 319 319 301 312 313 316 310 298 296 292 291 292 45 345 3 331 310 314 303 263 259 256 270 283 269 253 264 266 278 266 249 261 260 281 274 248 263 272 280 272 261 248 247 259 261 265 259 225 339 357 99 151 167 208 229 216 223 212 187 200 186 203
313 337 358 359 334 326 329 310 75 338 359 36 351 338 342 2 295 350 322 15 331 336 342 328 306 319 328 317 314 324 325 316 309 305 296 291 289 273 281 286 287 336 325 291 315 325 355 326 297 288 277 279 280 284 294 296 299 298 297 282 294 298 285 272 274 282 293 281 288 280 289 275 296 303 301 276 201 210 209 207 221 241 242 213 207 200 191 208
352 329 331 323 347 331 322 333 18 340 8 21 338 305 346 296 340 321 312 6 331 358 319 315 339 324 300 310 334 326 313 296 303 291 302 295 301 297 321 307 68 296 320 277 282 55 350 294 287 282 283 268 263 264 264 261 275 279 252 237 254 257 253 256 254 265 272 283 272 277 266 280 292 308 312 328 249 210 307 326 308 244 235 244 209 212 202 193
324 318 319 103 9 346 311 41 335 353 340 344 346 330 308 323 305 336 322 330 321 322 318 318 301 320 332 330 312 299 320 306 290 300 292 303 294 327 318 310 6 351 323 5 294 9 321 315 311 301 293 286 285 280 267 252 242 250 258 241 237 254 273 307 304 288 269 252 263 269 263 263 267 259 267 285 305 300 277 243 249 260 222 248 254 263 317 208
285 267 242 349 357 331 357 2 326 337 338 339 349 326 324 302 348 323 312 298 316 293 328 297 322 327 298 306 297 292 298 291 301 295 301 298 295 306 313 318 335 347 41 9 334 337 287 303 296 292 288 287 284 280 283 296 306 320 300 258 256 281 276 252 236 247 260 271 262 254 263 272 276 279 286 283 265 256 258 267 241 243 237 231 241 232 192 234
347 328 344 331 345 306 209 158 227 3 339 358 333 316 308 316 313 310 305 304 302 303 279 310 304 303 299 297 292 297 297 294 296 306 301 297 296 296 303 323 332 299 27 15 341 330 298 298 273 270 272 275 282 291 299 312 308 298 303 305 297 285 283 272 290 291 272 271 268 267 272 275 274 272 271 273 261 235 252 259 268 279 269 259 229 227 214 185
298 285 1 329 329 296 351 338 340 14 345 338 297 314 307 300 309 302 28 302 288 303 312 300 303 297 281 274 273 273 273 288 285 292 298 300 301 302 308 318 328 324 359 343 331 318 284 277 268 266 267 271 280 281 284 288 290 290 292 295 298 291 283 286 284 276 291 302 277 274 272 283 290 288 283 279 289 288 267 261 255 248 250 259 270 213 203 196
293 15 350 55 313 299 316 302 353 326 313 307 286 293 287 296 301 296 296 276 300 282 294 295 285 288 303 309 317 300 294 276 286 287 302 296 309 314 313 324 313 313 314 301 305 284 287 270 270 273 273 275 271 274 274 274 270 278 285 284 277 279 283 280 278 283 290 274 283 287 282 279 279 281 288 292 295 298 296 292 289 296 293 285 278 266 239 203
334 339 313 40 283 307 313 315 314 302 297 292 287 281 279 280 280 282 291 295 275 272 270 288 288 287 286 295 294 296 306 299 284 300 303 311 304 312 298 303 285 301 309 302 295 288 300 280 296 300 297 295 295 292 295 293 292 289 284 283 282 281 277 274 270 265 258 262 269 270 278 279 277 276 275 274 275 277 280 285 289 284 293 308 303 305 228 216
25 348 336 342 318 297 282 279 279 285 283 285 283 262 274 279 281 284 279 290 305 292 300 277 292 297 297 298 300 293 302 297 301 295 303 300 297 284 291 287 296 298 305 295 306 324 316 292 316 300 291 282 280 279 279 279 280 280 278 274 272 272 276 276 279 280 287 285 281 283 282 278 276 286 297 290 277 276 282 289 286 297 329 300 290 253 214 228
333 318 345 319 301 297 309 290 277 273 270 263 256 260 254 262 271 275 280 298 290 297 295 287 294 308 309 303 300 298 303 305 310 303 306 300 291 308 307 302 317 308 301 295 292 292 285 282 284 280 275 270 269 273 273 276 280 278 274 268 269 275 276 277 275 280 281 280 282 285 282 280 289 293 298 296 295 291 284 285 283 280 293 319 281 256 256 266
333 338 292 291 286 283 281 279 273 269 258 261 264 276 282 281 283 308 300 291 290 283 284 328 339 324 298 288 278 290 327 331 311 304 302 295 291 289 285 287 287 285 287 279 287 280 272 277 274 275 271 267 273 274 277 282 282 272 259 265 276 269 269 268 268 270 266 271 270 267 269 278 286 291 288 287 284 282 283 286 298 41 349 282 276 271 247 239